Regional Weather Roundup
Issued by NWS

Home | Current Version | Previous Version | Graphics & Text | Print | Product List | Glossary On
Versions: 1 2 3 4 5 6 7 8 9 10 11 12 13 14 15 16 17 18 19 20 21 22 23 24 25 26 27 28 29 30 31 32 33 34 35 36 37 38 39 40 41 42 43 44 45 46 47 48 49
000
ASUS45 KBOU 142207
RWRCO

WEATHER ROUNDUP FOR COLORADO
NATIONAL WEATHER SERVICE DENVER/BOULDER CO
400 PM MDT SUN SEP 14 2014

NOTE: "FAIR" INDICATES FEW OR NO CLOUDS BELOW 12000 FEET WITH NO
SIGNIFICANT WEATHER AND/OR OBSTRUCTIONS TO VISIBILITY.

COZ001>005-013-030-031-142300-
...NORTHWEST COLORADO...

CITY           SKY/WX    TMP DP  RH WIND       PRES   REMARKS
CRAIG          MOSUNNY   82  29  14 W18G31    30.12S
HAYDEN         MOSUNNY   77  27  15 W16G29    30.14S
MEEKER         CLOUDY    75  40  28 E3        30.16S
MOUNT WERNER   NOT AVBL
STEAMBOAT SPGS PTSUNNY   74  35  24 S13       30.17R
WALDEN         PTSUNNY   66  30  26 W18G24    30.24F
$$

COZ006>008-011-142300-
...WEST CENTRAL VALLEYS...

CITY           SKY/WX    TMP DP  RH WIND       PRES   REMARKS
GRAND JUNCTION MOSUNNY   84  41  21 W6        30.05F
MONTROSE       MOSUNNY   83  35  18 CALM      30.13F
EAGLE          MOSUNNY   75  36  23 NW10      30.19
RIFLE          MOSUNNY   81  31  16 W18       30.10S
DELTA          MOSUNNY   87  33  14 SW8       30.08F
NUCLA          MOSUNNY   79  36  21 CALM      30.17S
$$

COZ017>023-064>068-142300-
...SOUTHWEST COLORADO...

CITY           SKY/WX    TMP DP  RH WIND       PRES   REMARKS
DURANGO        MOSUNNY   81  36  19 W9        30.19F
CORTEZ         SUNNY     82  38  20 VRB3      30.14F
PAGOSA SPRINGS NOT AVBL
TELLURIDE      MOSUNNY   70  34  26 W6        30.37F
WOLF CREEK PAS PTSUNNY   50  34  53 SE6       30.57F
$$

COZ009-010-012-014-032>034-037-058>063-142300-
...CENTRAL COLORADO...

CITY           SKY/WX    TMP DP  RH WIND       PRES   REMARKS
ASPEN          PTSUNNY   71  35  26 N8G17     30.27R
BUENA VISTA    MOSUNNY   72  26  17 W9        30.25F
COPPER MTN     PTSUNNY   54  23  30 W18G33    30.56S
BERTHOUD PASS  PTSUNNY   45  45 100 W18G37    30.60R
COTTONWOOD PAS PTSUNNY   70  16  12 SW12G21   30.40F
GUNNISON       MOSUNNY   73  36  25 SW10      30.28S
KREMMLING      PTSUNNY   73  27  17 W20G30    30.24S
LEADVILLE      MOSUNNY   65  26  23 W12       30.39F
MONARCH PASS   MOSUNNY   54  27  35 W28G39    30.66F
SALIDA         MOSUNNY   82  23  11 W12G28    30.29S
SUNLIGHT       MOSUNNY   63  34  34 SW5       30.50S
WILKERSON PASS NOT AVBL
$$

COZ069>075-142300-
...SAN LUIS VALLEY/SANGRE DE CRISTO MOUNTAINS...

CITY           SKY/WX    TMP DP  RH WIND       PRES   REMARKS
ALAMOSA        MOSUNNY   77  31  18 VRB7      30.24F
LA VETA PASS   NOT AVBL
SAGUACHE       NOT AVBL
$$

COZ035-036-038>040-142300-
...NORTHERN COLORADO FRONT RANGE...

CITY           SKY/WX    TMP DP  RH WIND       PRES   REMARKS
DENVER INTL AP PTSUNNY   83  31  15 SW6       30.04F
DMNS CITY PARK   N/A     85  32  14 N8        30.03S
AURORA         NOT AVBL
FRONT RANGE AP MOSUNNY   86  32  14 W9        30.06S
ERIE MUNI ARPT MOSUNNY   83  34  16 W12G17    30.02S
BOULDER MUN AP MOSUNNY   81  34  18 W18G24    30.03S
CENTENNIAL     MOSUNNY   82  29  14 SW6       30.07F
BROOMFIELD     NOT AVBL
FORT COLLINS   PTSUNNY   79  37  22 NW9       30.01S
LONGMONT       PTSUNNY   86  31  14 CALM      30.03R
$$

COZ041-046-047-076>085-087-088-142300-
...PIKES PEAK/PALMER DIVIDE AND SOUTHERN FOOTHILLS...

CITY           SKY/WX    TMP DP  RH WIND       PRES   REMARKS
COLO. SPRINGS  PTSUNNY   81  24  12 SW10      30.13F
A. F. ACADEMY  NOT AVBL
ELLICOTT       NOT AVBL
FALCON         MOSUNNY   80  27  14 S7        30.18F
FORT CARSON    NOT AVBL
LIMON          SUNNY     84  28  13 NW7       30.07F
MONUMENT HILL  MOSUNNY   77  28  16 W7G16     30.17F
TRINIDAD       MOSUNNY   86  28  12 VRB6      30.10F
$$

COZ042>045-048>051-090-091-142300-
...NORTHEAST COLORADO...

CITY           SKY/WX    TMP DP  RH WIND       PRES   REMARKS
GREELEY ARPT   PTSUNNY   84  36  17 NW17G26   30.01R
AKRON          SUNNY     86  33  15 W7        29.98F
BURLINGTON     SUNNY     80  56  43 S14       30.02F
WRAY           SUNNY     82  55  39 SE10      29.96F
STERLING       SUNNY     90  46  22 S8        29.92F
HOLYOKE        SUNNY     79  55  44 S14G21    29.96F
FORT MORGAN    SUNNY     88  31  13 W13G18    29.97F
$$

COZ086-089-092>099-142300-
...SOUTHEAST COLORADO...

CITY           SKY/WX    TMP DP  RH WIND       PRES   REMARKS
PUEBLO         MOSUNNY   89  28  11 SE12G17   30.01F
LA JUNTA       SUNNY     90  28  11 VRB3      30.00F
LAMAR          SUNNY     91  34  13 E6        29.97F
SPRINGFIELD      N/A     85  48  27 S9G20     30.03F
$$


USA.gov is the U.S. government's official web portal to all federal, state and local government web resources and services.